This is the latest recevied weather packets stored in our database for station/object KM4NDN. If no packets are shown the sender has not sent any weather packets the latest 10 day(s).
| Time | Temp. | Humidity | Pressure | Rain* | Wind** | Luminosity | Snow |
|---|---|---|---|---|---|---|---|
| 1777835139 | 16.11° C | 35% | 1011.6 hPa | 0 mm | - | 792 W/m² | - |
| 1777834837 | 16.11° C | 34% | 1011.4 hPa | 0 mm | - | 807 W/m² | - |
| 1777834533 | 16.11° C | 33% | 1011.4 hPa | 0 mm | - | 885 W/m² | - |
| 1777834232 | 16.11° C | 34% | 1011.9 hPa | 0 mm | - | 252 W/m² | - |
| 1777833929 | 16.11° C | 35% | 1011.8 hPa | 0 mm | - | 925 W/m² | - |
| 1777833626 | 16.11° C | 36% | 1011.8 hPa | 0 mm | - | 313 W/m² | - |
| 1777833322 | 16.11° C | 34% | 1012 hPa | 0 mm | - | 882 W/m² | - |
| 1777833019 | 16.11° C | 36% | 1011.8 hPa | 0 mm | - | 922 W/m² | - |
| 1777832718 | 16.11° C | 37% | 1011.9 hPa | 0 mm | - | 315 W/m² | - |
| 1777832415 | 16.11° C | 36% | 1011.8 hPa | 0 mm | - | 895 W/m² | - |
| 1777832112 | 16.11° C | 35% | 1012 hPa | 0 mm | - | 888 W/m² | - |
| 1777831808 | 16.11° C | 36% | 1011.9 hPa | 0 mm | - | 806 W/m² | - |
| 1777831506 | 15.56° C | 37% | 1012.1 hPa | 0 mm | - | 894 W/m² | - |
| 1777831203 | 16.11° C | 34% | 1012.1 hPa | 0 mm | - | 832 W/m² | - |
| 1777830901 | 15.56° C | 37% | 1012.2 hPa | 0 mm | - | 842 W/m² | - |
| 1777830596 | 15.56° C | 38% | 1012.4 hPa | 0 mm | - | 835 W/m² | - |
| 1777830295 | 16.11° C | 36% | 1012.3 hPa | 0 mm | - | 901 W/m² | - |
| 1777829990 | 15.56° C | 35% | 1012.3 hPa | 0 mm | - | 857 W/m² | - |
| 1777829686 | 15.56° C | 37% | 1012.6 hPa | 0 mm | - | 860 W/m² | - |
| 1777829383 | 15.56° C | 34% | 1012.8 hPa | 0 mm | - | 700 W/m² | - |
| 1777829080 | 15.56° C | 37% | 1012.6 hPa | 0 mm | - | 831 W/m² | - |
| 1777828777 | 15.56° C | 41% | 1012.8 hPa | 0 mm | - | 867 W/m² | - |
| 1777828473 | 15.56° C | 40% | 1012.7 hPa | 0 mm | - | 857 W/m² | - |
| 1777828171 | 15.56° C | 44% | 1012.9 hPa | 0 mm | - | 813 W/m² | - |
| 1777827867 | 15° C | 41% | 1012.9 hPa | 0 mm | - | 802 W/m² | - |
* Rain latest hour (hover to see other rain measurements)
** Current wind speed in m/s (hover to see current wind gust speed)